Change the Weather History Date:

Wednesday, November 27, 2013

  Actual Average Record
Temperature  
Mean Temperature 33 °F -  
Max Temperature 36 °F 36 °F 48 °F (2002)
Min Temperature 30 °F 24 °F 0 °F (1986)
Degree Days  
Heating Degree Days 32    
Moisture  
Dew Point 33 °F    
Average Humidity 95    
Maximum Humidity 100    
Minimum Humidity 92    
Precipitation  
Precipitation 0.36 in - - ()
Snow  
Snow 0.00 in - - ()
Snow Depth 3.00 in    
Sea Level Pressure  
Sea Level Pressure 29.64 in    
Wind  
Wind Speed 0 mph (NNE)    
Max Wind Speed 6 mph    
Max Gust Speed -    
Visibility 5 miles    
Events Fog , Rain    
Averages and records for this station are not official NWS values.
T = Trace of Precipitation, MM = Missing Value Source: NWS Daily Summary

Daily Weather History Graph

Daily Weather History Graph

Search for Another Location

Airport or City:

Trip Planner

Search our weather history database for the weather conditions in past years. The results will help you decide how hot, cold, wet, or windy it might be!

Date:

Astronomy

Nov. 27, 2013 Rise Set
Actual Time 9:13 AM AKST 3:45 PM AKST
Civil Twilight 8:18 AM AKST 4:39 PM AKST
Nautical Twilight 7:23 AM AKST 5:35 PM AKST
Astronomical Twilight 6:32 AM AKST 6:26 PM AKST
Moon 1:55 AM AKST (11/27) 1:48 PM AKST (11/27)
Length of Visible Light 8h 20m
Length of Day
6h 32m
Waning Crescent, 30% of the Moon is Illuminated
Nov 27
Waning Crescent
Dec 2
New
Dec 9
First Quarter
Dec 17
Full
Dec 25
Last Quarter

Hourly Weather History & Observations

Time (AKST) Temp. Windchill Dew Point Humidity Pressure Visibility Wind Dir Wind Speed Gust Speed Precip Events Conditions
12:53 AM 35.1 °F - 34.0 °F 96% 29.89 in 10.0 mi Calm Calm - 0.00 in   Overcast
1:14 AM 35.6 °F - 33.8 °F 93% 29.88 in 10.0 mi Calm Calm - N/A   Overcast
1:53 AM 35.1 °F - 34.0 °F 96% 29.87 in 10.0 mi Calm Calm - 0.00 in Rain Light Rain
2:48 AM 35.6 °F - 33.8 °F 93% 29.85 in 7.0 mi Calm Calm - 0.03 in Rain Light Rain
2:53 AM 36.0 °F - 34.0 °F 93% 29.85 in 9.0 mi Calm Calm - 0.03 in Rain Light Rain
3:53 AM 36.0 °F - 34.0 °F 93% 29.83 in 9.0 mi Calm Calm - 0.04 in Rain Light Rain
4:33 AM 35.6 °F - 33.8 °F 93% 29.82 in 9.0 mi Calm Calm - 0.02 in Rain Light Rain
4:53 AM 35.1 °F - 34.0 °F 96% 29.81 in 10.0 mi Calm Calm - 0.03 in Rain Light Rain
5:53 AM 36.0 °F - 34.0 °F 93% 29.79 in 3.0 mi Calm Calm - 0.03 in Rain Light Rain
6:00 AM 35.6 °F - 33.8 °F 93% 29.79 in 2.5 mi Calm Calm - 0.00 in Rain Light Rain
6:16 AM 35.6 °F - 35.6 °F 100% 29.78 in 3.0 mi Calm Calm - 0.01 in Rain Light Rain
6:21 AM 35.6 °F - 35.6 °F 100% 29.78 in 1.8 mi Calm Calm - 0.01 in Rain Light Rain
6:33 AM 35.6 °F - 35.6 °F 100% 29.78 in 2.0 mi Calm Calm - 0.01 in Rain Light Rain
6:53 AM 36.0 °F - 34.0 °F 93% 29.77 in 2.0 mi Calm Calm - 0.02 in Rain Light Rain
7:23 AM 35.6 °F - 35.6 °F 100% 29.76 in 1.8 mi Calm Calm - 0.02 in Rain Light Rain
7:51 AM 35.6 °F - 33.8 °F 93% 29.75 in 3.0 mi Calm Calm - 0.03 in Rain Light Rain
7:53 AM 35.1 °F - 33.1 °F 92% 29.75 in 5.0 mi Calm Calm - 0.03 in Rain Light Rain
8:53 AM 35.1 °F - 33.1 °F 92% 29.73 in 7.0 mi Calm Calm - 0.02 in Rain Light Rain
9:53 AM 34.0 °F - 33.1 °F 96% 29.71 in 2.0 mi Calm Calm - 0.03 in Rain Light Rain
10:10 AM 33.8 °F - 33.8 °F 100% 29.70 in 3.0 mi Calm Calm - 0.01 in Rain Light Rain
10:19 AM 33.8 °F - 33.8 °F 100% 29.70 in 2.5 mi Calm Calm - 0.02 in Rain Light Rain
10:29 AM 33.8 °F - 33.8 °F 100% 29.70 in 1.5 mi Calm Calm - 0.03 in Rain Rain
10:36 AM 35.6 °F - 33.8 °F 93% 29.69 in 1.5 mi Calm Calm - 0.03 in Rain Light Rain
10:53 AM 35.1 °F - 34.0 °F 96% 29.69 in 2.0 mi Calm Calm - 0.05 in Rain Light Rain
11:29 AM 35.6 °F - 33.8 °F 93% 29.67 in 1.5 mi Calm Calm - 0.02 in Rain Light Rain
11:53 AM 35.1 °F - 33.1 °F 92% 29.66 in 0.8 mi Calm Calm - 0.02 in Rain Light Rain
12:25 PM 35.6 °F - 33.8 °F 93% 29.64 in 1.0 mi Calm Calm - 0.02 in Rain Light Rain
12:41 PM 35.6 °F - 33.8 °F 93% 29.64 in 3.0 mi Calm Calm - 0.02 in Rain Light Rain
12:53 PM 36.0 °F - 35.1 °F 97% 29.63 in 4.0 mi Calm Calm - 0.03 in Rain Light Rain
1:53 PM 36.0 °F 31.1 °F 34.0 °F 93% 29.60 in 10.0 mi WNW 5.8 mph - 0.02 in Rain Light Rain
2:53 PM 36.0 °F - 34.0 °F 93% 29.57 in 6.0 mi Calm Calm - 0.01 in Rain Light Rain
3:00 PM 35.6 °F 30.7 °F 33.8 °F 93% 29.57 in 10.0 mi WNW 5.8 mph - 0.00 in Rain Light Rain
3:18 PM 35.6 °F 30.7 °F 33.8 °F 93% 29.56 in 5.0 mi WNW 5.8 mph - 0.00 in Rain Light Rain
3:53 PM 35.1 °F 32.2 °F 33.1 °F 92% 29.54 in 3.0 mi NW 3.5 mph - 0.00 in Rain Light Rain
4:12 PM 33.8 °F - 33.8 °F 100% 29.53 in 0.8 mi Calm Calm - 0.00 in Fog Patches of Fog
4:19 PM 33.8 °F - 33.8 °F 100% 29.52 in 1.0 mi Calm Calm - 0.00 in Fog Patches of Fog
4:35 PM 33.8 °F - 32.0 °F 93% 29.52 in 1.5 mi Calm Calm - 0.00 in   Mostly Cloudy
4:45 PM 33.8 °F - 32.0 °F 93% 29.51 in 4.0 mi Calm Calm - 0.00 in   Mostly Cloudy
4:53 PM 33.1 °F - 30.9 °F 92% 29.51 in 4.0 mi Calm Calm - 0.00 in   Mostly Cloudy
5:18 PM 32.0 °F - 30.2 °F 93% 29.50 in 6.0 mi Calm Calm - N/A   Mostly Cloudy
5:53 PM 32.0 °F 28.7 °F 30.9 °F 96% 29.49 in 6.0 mi NE 3.5 mph - N/A   Scattered Clouds
6:53 PM 32.0 °F - 30.0 °F 92% 29.48 in 1.8 mi Calm Calm - N/A   Scattered Clouds
6:58 PM 32.0 °F - 30.2 °F 93% 29.48 in 2.0 mi Calm Calm - N/A   Mostly Cloudy
7:08 PM 30.2 °F - 28.4 °F 93% 29.47 in 3.0 mi Calm Calm - N/A   Mostly Cloudy
7:53 PM 32.0 °F 28.7 °F 30.0 °F 92% 29.46 in 10.0 mi NNE 3.5 mph - N/A   Scattered Clouds
8:53 PM 30.9 °F 27.5 °F 28.9 °F 92% 29.44 in 10.0 mi ENE 3.5 mph - N/A   Scattered Clouds
9:05 PM 30.2 °F 25.4 °F 28.4 °F 93% 29.45 in 2.5 mi SSE 4.6 mph - N/A   Partly Cloudy
9:11 PM 30.2 °F 26.7 °F 28.4 °F 93% 29.45 in 0.8 mi SE 3.5 mph - N/A   Mostly Cloudy
9:46 PM 30.2 °F - 30.2 °F 100% 29.45 in 8.0 mi Calm Calm - N/A   Scattered Clouds
9:53 PM 30.9 °F 27.5 °F 28.9 °F 92% 29.45 in 10.0 mi ESE 3.5 mph - N/A   Scattered Clouds
10:53 PM 30.9 °F - 28.9 °F 92% 29.47 in 10.0 mi Calm Calm - N/A   Scattered Clouds
11:53 PM 30.0 °F - 28.0 °F 92% 29.47 in 10.0 mi Calm Calm - N/A   Partly Cloudy